sat.trackr.live / text

‹ back to catalog

STARLINK-2605

NORAD 48392 · 2021-038AR

PAYLOAD ACTIVE UNKNOWN

§ Identity

Operator
Country
US
Launch date
2021-05-04
Launch site
AFETR
Launch vehicle
Mass (kg)
RCS (m²)

Purposes: comms

External: N2YO · Heavens-Above · Gunter

§ Orbital elements

Epoch: 2026-05-24T22:55:43.102272Z

Period
94.01 min
Inclination
53.1600°
Eccentricity
0.0001149
Mean motion
15.31718508 rev/d
Perigee alt
469.9 km
Apogee alt
471.5 km
Semi-major
6,848.8 km
B*
1.2982e-4
RAAN
337.8385°
Arg perigee
93.5014°
Mean anomaly
266.6118°
Rev number
28,034

§ Raw data

STARLINK-26051 48392U 21038AR  26144.95535998  .00003668  00000+0  12982-3 0  99972 48392  53.1600 337.8385 0001149  93.5014 266.6118 15.31718508280343

JSON: /api/v1/satellites/48392 · /tle

For live sub-satellite position, see the globe view (requires WebGL).

§ Visibility from observer

Set your observer location to see the next 7 days of passes ≥ 10°. The values pass through the URL so the page stays shareable.

No JS? Fill the form by hand. The geolocation button needs JavaScript.